This is the latest recevied weather packets stored in our database for station/object VK3CG. If no packets are shown the sender has not sent any weather packets the latest 1 day(s).
| Time | Temp. | Humidity | Pressure | Rain* | Wind** | Luminosity | Snow |
|---|---|---|---|---|---|---|---|
| 1778048114 | 12.22° C | 61% | 1027.9 hPa | 0 mm | - | 60 W/m² | - |
| 1778047212 | 12.22° C | 60% | 1027.9 hPa | 0 mm | - | 76 W/m² | - |
| 1778046334 | 12.22° C | 60% | 1028.3 hPa | 0 mm | - | 79 W/m² | - |
| 1778045409 | 12.78° C | 59% | 1028.2 hPa | 0 mm | - | 91 W/m² | - |
| 1778042715 | 13.89° C | 56% | 1028.6 hPa | 0 mm | - | 183 W/m² | - |
| 1778040902 | 12.78° C | 55% | 1028.9 hPa | 0 mm | - | 207 W/m² | - |
| 1778040060 | 12.78° C | 54% | 1029 hPa | 0 mm | - | 155 W/m² | - |
| 1778038262 | 12.78° C | 55% | 1029.4 hPa | 0 mm | - | 369 W/m² | - |
| 1778036452 | 12.22° C | 56% | 1029.9 hPa | 0 mm | - | 156 W/m² | - |
| 1778035550 | 12.22° C | 57% | 1030.1 hPa | 0 mm | - | 123 W/m² | - |
| 1778034666 | 12.22° C | 56% | 1030.2 hPa | 0 mm | - | 118 W/m² | - |
| 1778033745 | 12.22° C | 57% | 1030.5 hPa | 0 mm | - | 139 W/m² | - |
| 1778030140 | 11.67° C | 57% | 1031.3 hPa | 0 mm | - | 162 W/m² | - |
| 1778028357 | 11.67° C | 57% | 1031.6 hPa | 0 mm | - | 135 W/m² | - |
| 1778027445 | 11.67° C | 58% | 1031.7 hPa | 0 mm | - | 109 W/m² | - |
| 1778026538 | 11.67° C | 58% | 1031.8 hPa | 0 mm | - | 98 W/m² | - |
| 1778022031 | 11.11° C | 59% | 1032 hPa | 0 mm | - | 104 W/m² | - |
| 1778021124 | 10.56° C | 59% | 1032.1 hPa | 0 mm | - | 84 W/m² | - |
| 1778018424 | 10° C | 61% | 1031.9 hPa | 0 mm | - | 32 W/m² | - |
| 1778015709 | 10° C | 61% | 1032.1 hPa | 0 mm | - | 5 W/m² | - |
* Rain latest hour (hover to see other rain measurements)
** Current wind speed in m/s (hover to see current wind gust speed)